When you browse on this site, cookies collect data to enhance your experience and personalize the content and advertising you see.
Visit our Privacy Policy to learn more. By continuing to use the site, you agree to this use of cookies and data.
  • In Czech Republic
  • List of Countries
  • For 7 days
  • Water Temperature
  • Weather Map
  • Weather Widgets
  • user-avatar
    Login

    Hourly Weather Bonn

    Today, 21 October, Monday

    Time Temperature Precipitation Wind Pressure Humidity
    00:00 +14°C° 1.7 mm 1 mps 751 mmHg 97%
    01:00 +14°C° 0 mm 1 mps 751 mmHg 97%
    02:00 +14°C° 0 mm 1 mps 752 mmHg 96%
    03:00 +14°C° 0 mm 1 mps 752 mmHg 96%
    04:00 +14°C° 0 mm 1 mps 752 mmHg 95%
    05:00 +14°C° 0 mm 1 mps 753 mmHg 94%
    06:00 +14°C° 0 mm 1 mps 754 mmHg 93%
    07:00 +15°C° 0 mm 2 mps 754 mmHg 89%
    08:00 +14°C° 0 mm 3 mps 755 mmHg 84%
    09:00 +15°C° 0 mm 4 mps 755 mmHg 80%
    10:00 +17°C° 0 mm 4 mps 756 mmHg 75%
    11:00 +17°C° 0 mm 4 mps 756 mmHg 71%
    12:00 +18°C° 0 mm 4 mps 757 mmHg 66%
    13:00 +17°C° 0 mm 4 mps 757 mmHg 68%
    14:00 +17°C° 0 mm 3 mps 757 mmHg 70%
    15:00 +16°C° 0 mm 3 mps 757 mmHg 71%
    16:00 +14°C° 0 mm 3 mps 758 mmHg 74%
    17:00 +13°C° 0 mm 3 mps 758 mmHg 76%
    18:00 +12°C° 0 mm 3 mps 759 mmHg 79%
    19:00 +12°C° 0 mm 3 mps 759 mmHg 79%
    20:00 +11°C° 0 mm 3 mps 760 mmHg 80%
    21:00 +11°C° 0 mm 3 mps 760 mmHg 81%
    22:00 +12°C° 0 mm 2 mps 760 mmHg 82%
    23:00 +12°C° 0 mm 2 mps 760 mmHg 83%

    Tomorrow, 22 October, Tuesday

    Time Temperature Precipitation Wind Pressure Humidity
    00:00 +12°C° 0 mm 1 mps 761 mmHg 84%
    01:00 +12°C° 0 mm 1 mps 761 mmHg 85%
    02:00 +11°C° 0 mm 1 mps 761 mmHg 87%
    03:00 +11°C° 0 mm 1 mps 761 mmHg 88%
    04:00 +11°C° 0 mm 1 mps 761 mmHg 89%
    05:00 +10°C° 0 mm 1 mps 761 mmHg 90%
    06:00 +10°C° 0 mm 1 mps 761 mmHg 90%
    07:00 +11°C° 0 mm 1 mps 762 mmHg 86%
    08:00 +13°C° 0 mm 1 mps 762 mmHg 82%
    09:00 +14°C° 0 mm 1 mps 762 mmHg 78%
    10:00 +15°C° 0 mm 1 mps 762 mmHg 73%
    11:00 +15°C° 0 mm 0 mps 762 mmHg 69%
    12:00 +16°C° 0 mm 0 mps 762 mmHg 65%
    13:00 +16°C° 0 mm 1 mps 761 mmHg 67%
    14:00 +16°C° 0 mm 1 mps 761 mmHg 68%
    15:00 +16°C° 0 mm 1 mps 760 mmHg 70%
    16:00 +14°C° 0 mm 1 mps 761 mmHg 75%
    17:00 +13°C° 0 mm 1 mps 761 mmHg 80%
    18:00 +12°C° 0 mm 1 mps 761 mmHg 86%
    19:00 +11°C° 0 mm 1 mps 761 mmHg 87%
    20:00 +11°C° 0 mm 1 mps 761 mmHg 87%
    21:00 +10°C° 0 mm 0 mps 761 mmHg 88%
    22:00 +10°C° 0 mm 0 mps 760 mmHg 89%
    23:00 +9°C° 0 mm 0 mps 760 mmHg 89%

    Day after tomorrow, 23 October, Wednesday

    Time Temperature Precipitation Wind Pressure Humidity
    00:00 +9°C° 0 mm 0 mps 760 mmHg 89%
    01:00 +10°C° 0 mm 1 mps 759 mmHg 90%
    02:00 +10°C° 0 mm 1 mps 759 mmHg 90%
    03:00 +10°C° 0 mm 1 mps 759 mmHg 90%
    04:00 +10°C° 0 mm 1 mps 758 mmHg 90%
    05:00 +10°C° 0 mm 1 mps 758 mmHg 91%
    06:00 +10°C° 0 mm 1 mps 758 mmHg 91%
    07:00 +12°C° 0 mm 2 mps 757 mmHg 87%
    08:00 +14°C° 0 mm 2 mps 757 mmHg 83%
    09:00 +14°C° 0 mm 3 mps 756 mmHg 78%
    10:00 +17°C° 0 mm 3 mps 756 mmHg 75%
    11:00 +18°C° 0 mm 3 mps 755 mmHg 72%
    12:00 +19°C° 0 mm 3 mps 755 mmHg 69%
    13:00 +19°C° 0 mm 3 mps 754 mmHg 71%
    14:00 +19°C° 0 mm 3 mps 754 mmHg 74%
    15:00 +19°C° 0 mm 3 mps 753 mmHg 76%
    16:00 +18°C° 0 mm 3 mps 753 mmHg 80%
    17:00 +17°C° 0 mm 3 mps 752 mmHg 84%
    18:00 +14°C° 0 mm 3 mps 752 mmHg 89%
    19:00 +14°C° 0 mm 3 mps 752 mmHg 89%
    20:00 +14°C° 0 mm 3 mps 752 mmHg 89%
    21:00 +14°C° 0 mm 3 mps 752 mmHg 89%
    22:00 +14°C° 0 mm 2 mps 751 mmHg 91%
    23:00 +14°C° 0 mm 2 mps 751 mmHg 92%

    24 October, Thursday

    Time Temperature Precipitation Wind Pressure Humidity
    00:00 +14°C° 0 mm 1 mps 751 mmHg 93%
    01:00 +13°C° 0 mm 1 mps 751 mmHg 94%
    02:00 +13°C° 0 mm 1 mps 751 mmHg 94%
    03:00 +13°C° 0 mm 2 mps 750 mmHg 94%
    04:00 +12°C° 0 mm 2 mps 750 mmHg 94%
    05:00 +12°C° 0 mm 1 mps 750 mmHg 94%
    06:00 +12°C° 0 mm 1 mps 750 mmHg 94%
    07:00 +13°C° 0 mm 1 mps 750 mmHg 89%
    08:00 +15°C° 0 mm 1 mps 751 mmHg 85%
    09:00 +16°C° 0 mm 1 mps 751 mmHg 80%
    10:00 +18°C° 0 mm 2 mps 751 mmHg 75%
    11:00 +19°C° 0 mm 2 mps 751 mmHg 70%
    12:00 +21°C° 0 mm 2 mps 751 mmHg 65%
    13:00 +21°C° 0 mm 2 mps 751 mmHg 67%
    14:00 +20°C° 0 mm 2 mps 751 mmHg 68%
    15:00 +20°C° 0 mm 2 mps 751 mmHg 69%
    16:00 +19°C° 0 mm 2 mps 752 mmHg 73%
    17:00 +18°C° 0 mm 2 mps 752 mmHg 76%
    18:00 +17°C° 0 mm 2 mps 752 mmHg 80%
    19:00 +16°C° 0 mm 2 mps 753 mmHg 79%
    20:00 +16°C° 0 mm 2 mps 753 mmHg 79%
    21:00 +16°C° 0 mm 2 mps 754 mmHg 78%
    22:00 +14°C° 0 mm 3 mps 754 mmHg 79%
    23:00 +13°C° 0 mm 3 mps 754 mmHg 79%

    25 October, Friday

    Time Temperature Precipitation Wind Pressure Humidity
    00:00 +13°C° 0 mm 3 mps 755 mmHg 80%
    01:00 +13°C° 0 mm 3 mps 755 mmHg 80%
    02:00 +13°C° 0 mm 3 mps 756 mmHg 81%
    03:00 +13°C° 0 mm 3 mps 756 mmHg 82%
    04:00 +13°C° 0 mm 2 mps 757 mmHg 83%
    05:00 +13°C° 0 mm 2 mps 757 mmHg 85%
    06:00 +12°C° 0 mm 2 mps 758 mmHg 87%
    07:00 +12°C° 0 mm 3 mps 758 mmHg 82%
    08:00 +13°C° 0 mm 3 mps 759 mmHg 76%
    09:00 +14°C° 0 mm 4 mps 759 mmHg 70%
    10:00 +14°C° 0 mm 4 mps 760 mmHg 67%
    11:00 +16°C° 0 mm 3 mps 760 mmHg 64%
    12:00 +16°C° 0 mm 3 mps 760 mmHg 61%
    13:00 +16°C° 0 mm 3 mps 760 mmHg 62%
    14:00 +16°C° 0 mm 2 mps 759 mmHg 64%
    15:00 +16°C° 0 mm 1 mps 759 mmHg 66%
    16:00 +15°C° 0 mm 2 mps 759 mmHg 71%
    17:00 +13°C° 0 mm 2 mps 759 mmHg 77%
    18:00 +12°C° 0 mm 2 mps 759 mmHg 82%
    19:00 +12°C° 0 mm 2 mps 759 mmHg 83%
    20:00 +11°C° 0 mm 3 mps 759 mmHg 84%
    21:00 +11°C° 0 mm 3 mps 758 mmHg 85%
    22:00 +11°C° 0 mm 3 mps 758 mmHg 84%
    23:00 +11°C° 0 mm 3 mps 758 mmHg 83%

    26 October, Saturday

    Time Temperature Precipitation Wind Pressure Humidity
    00:00 +11°C° 0 mm 3 mps 758 mmHg 82%
    01:00 +10°C° 0 mm 3 mps 757 mmHg 83%
    02:00 +10°C° 0 mm 3 mps 757 mmHg 83%
    03:00 +10°C° 0 mm 3 mps 757 mmHg 83%
    04:00 +10°C° 0 mm 3 mps 757 mmHg 83%
    05:00 +10°C° 0 mm 3 mps 757 mmHg 83%
    06:00 +10°C° 0 mm 3 mps 757 mmHg 83%
    07:00 +12°C° 0 mm 3 mps 758 mmHg 78%
    08:00 +13°C° 0 mm 3 mps 758 mmHg 74%
    09:00 +14°C° 0 mm 3 mps 758 mmHg 69%
    10:00 +16°C° 0 mm 3 mps 758 mmHg 69%
    11:00 +17°C° 0 mm 3 mps 758 mmHg 68%
    12:00 +18°C° 0 mm 2 mps 758 mmHg 68%
    13:00 +18°C° 0 mm 2 mps 758 mmHg 70%
    14:00 +17°C° 0 mm 2 mps 758 mmHg 72%
    15:00 +18°C° 0 mm 1 mps 758 mmHg 75%
    16:00 +16°C° 0 mm 1 mps 758 mmHg 78%
    17:00 +15°C° 0 mm 1 mps 758 mmHg 82%
    18:00 +14°C° 0 mm 1 mps 759 mmHg 86%
    19:00 +14°C° 0 mm 1 mps 759 mmHg 87%
    20:00 +13°C° 0 mm 1 mps 759 mmHg 88%
    21:00 +13°C° 0 mm 1 mps 759 mmHg 90%
    22:00 +12°C° 0 mm 1 mps 759 mmHg 90%
    23:00 +12°C° 0 mm 1 mps 759 mmHg 90%

    27 October, Sunday

    Time Temperature Precipitation Wind Pressure Humidity
    00:00 +12°C° 0 mm 1 mps 759 mmHg 90%
    01:00 +11°C° 0 mm 1 mps 759 mmHg 90%
    02:00 +11°C° 0 mm 1 mps 759 mmHg 90%
    03:00 +11°C° 0 mm 1 mps 759 mmHg 90%
    04:00 +11°C° 0 mm 1 mps 759 mmHg 90%
    05:00 +10°C° 0 mm 1 mps 759 mmHg 91%
    06:00 +10°C° 0 mm 1 mps 759 mmHg 91%
    07:00 +12°C° 0 mm 1 mps 759 mmHg 86%
    08:00 +13°C° 0 mm 1 mps 759 mmHg 81%
    09:00 +15°C° 0 mm 1 mps 759 mmHg 75%
    10:00 +16°C° 0 mm 1 mps 758 mmHg 70%
    11:00 +18°C° 0 mm 1 mps 758 mmHg 65%
    12:00 +20°C° 0 mm 1 mps 758 mmHg 60%
    13:00 +20°C° 0 mm 1 mps 757 mmHg 63%
    14:00 +18°C° 0 mm 2 mps 757 mmHg 66%
    15:00 +18°C° 0 mm 2 mps 756 mmHg 69%
    16:00 +17°C° 0 mm 2 mps 756 mmHg 74%
    17:00 +15°C° 0 mm 2 mps 756 mmHg 80%
    18:00 +14°C° 0 mm 2 mps 756 mmHg 85%
    19:00 +14°C° 0 mm 2 mps 756 mmHg 86%
    20:00 +13°C° 0 mm 2 mps 756 mmHg 87%
    21:00 +13°C° 0 mm 2 mps 756 mmHg 89%
    22:00 +13°C° 0 mm 2 mps 756 mmHg 89%
    23:00 +12°C° 0 mm 2 mps 755 mmHg 90%
    Show more